TimeAKDT,TemperatureF,Dew PointF,Humidity,Sea Level PressureIn,VisibilityMPH,Wind Direction,Wind SpeedMPH,Gust SpeedMPH,PrecipitationIn,Events,Conditions,WindDirDegrees,DateUTC
12:53 AM,39.9,36.0,86,30.41,10.0,North,3.5,-,N/A,,Overcast,360,2012-10-02 08:53:00
1:53 AM,39.9,36.0,86,30.42,10.0,Calm,Calm,-,N/A,,Overcast,0,2012-10-02 09:53:00
2:53 AM,39.9,37.0,89,30.41,10.0,Calm,Calm,-,0.00,Rain,Light Rain,0,2012-10-02 10:53:00
3:09 AM,39.2,37.4,93,30.41,10.0,Calm,Calm,-,0.00,Rain,Light Rain,0,2012-10-02 11:09:00
3:50 AM,39.2,37.4,93,30.41,10.0,Calm,Calm,-,0.00,Rain,Light Rain,0,2012-10-02 11:50:00
3:53 AM,39.9,37.9,93,30.41,10.0,Calm,Calm,-,0.00,Rain,Light Rain,0,2012-10-02 11:53:00
4:53 AM,39.9,39.0,97,30.40,10.0,Calm,Calm,-,0.02,Rain,Light Rain,0,2012-10-02 12:53:00
5:53 AM,39.9,39.0,97,30.40,10.0,Calm,Calm,-,0.03,Rain,Light Rain,0,2012-10-02 13:53:00
6:53 AM,41.0,39.0,93,30.39,4.0,Calm,Calm,-,0.03,Rain,Light Rain,0,2012-10-02 14:53:00
7:53 AM,41.0,39.9,96,30.38,7.0,Calm,Calm,-,0.06,Rain,Light Rain,0,2012-10-02 15:53:00
8:08 AM,41.0,39.2,93,30.37,6.0,Calm,Calm,-,0.00,Rain,Light Rain,0,2012-10-02 16:08:00
8:19 AM,41.0,39.2,93,30.37,8.0,Calm,Calm,-,0.00,Rain,Light Rain,0,2012-10-02 16:19:00
8:53 AM,42.1,39.9,92,30.36,4.0,Calm,Calm,-,0.02,Rain,Light Rain,0,2012-10-02 16:53:00
9:05 AM,42.8,39.2,87,30.36,7.0,Calm,Calm,-,0.01,Rain,Light Rain,0,2012-10-02 17:05:00
9:32 AM,42.8,39.2,87,30.36,10.0,Calm,Calm,-,0.02,,Overcast,0,2012-10-02 17:32:00
9:53 AM,46.0,42.1,86,30.35,10.0,South,6.9,20.7,0.02,Rain,Light Rain,180,2012-10-02 17:53:00
10:53 AM,46.0,42.1,86,30.35,10.0,SSW,13.8,24.2,0.00,Rain,Light Rain,200,2012-10-02 18:53:00
11:53 AM,46.0,42.1,86,30.35,9.0,SSW,11.5,19.6,0.01,Rain,Light Rain,210,2012-10-02 19:53:00
12:53 PM,46.0,42.1,86,30.34,10.0,South,12.7,17.3,0.01,Rain,Light Rain,190,2012-10-02 20:53:00
1:53 PM,45.0,42.1,90,30.33,8.0,SSW,16.1,20.7,0.01,Rain,Light Rain,200,2012-10-02 21:53:00
2:53 PM,46.0,42.1,86,30.30,8.0,SSW,11.5,18.4,0.02,Rain,Light Rain,200,2012-10-02 22:53:00
4:53 PM,46.0,39.9,79,30.26,10.0,SSW,13.8,20.7,0.02,Rain,Light Rain,200,2012-10-03 00:53:00
5:53 PM,45.0,39.9,82,30.25,10.0,SSW,18.4,24.2,0.01,Rain,Light Rain,200,2012-10-03 01:53:00
6:53 PM,45.0,39.0,80,30.25,10.0,SSW,18.4,27.6,0.01,Rain,Light Rain,200,2012-10-03 02:53:00
7:53 PM,45.0,37.9,76,30.24,10.0,SSW,15.0,21.9,0.01,,Overcast,200,2012-10-03 03:53:00
8:53 PM,44.1,39.0,82,30.25,10.0,Variable,3.5,-,0.00,Rain,Light Rain,0,2012-10-03 04:53:00
9:53 PM,43.0,41.0,93,30.25,10.0,NNW,5.8,-,N/A,,Overcast,340,2012-10-03 05:53:00
10:53 PM,43.0,41.0,93,30.27,10.0,NW,3.5,-,0.00,,Overcast,310,2012-10-03 06:53:00
11:53 PM,42.1,41.0,96,30.27,10.0,Calm,Calm,-,0.00,Rain,Light Rain,0,2012-10-03 07:53:00